[Iaude] MPEC K102: 2024 KK [a=1.79,e=0.45,i=6.2,H=24.6]
    mpec at cfa.harvard.edu 
    mpec at cfa.harvard.edu
       
    Tue May 28 02:37:26 EDT 2024
    
    
  
M.P.E.C. 2024-K102                                 Issued 2024 May 28, 06:36 UT
     The Minor Planet Electronic Circulars contain information on unusual
         minor planets, routine data on comets and natural satellites,
         and occasional editorial announcements.  They are published
    on behalf of Division F of the International Astronomical Union by the
          Minor Planet Center, Smithsonian Astrophysical Observatory,
                          Cambridge, MA 02138, U.S.A.
			  
             Prepared using the Tamkin Foundation Computer Network
                              MPC at CFA.HARVARD.EDU
            URL https://www.minorplanetcenter.net/    ISSN 1523-6714
                                    2024 KK                                     
Observations:
     K24K00K* C2024 05 26.27432213 32 10.997-12 42 14.32         21.15wXEK102F51
     K24K00K  C2024 05 26.28636013 32 07.878-12 42 53.77         21.50wXEK102F51
     K24K00K  C2024 05 26.29837613 32 04.755-12 43 32.60         21.89wXEK102F51
     K24K00K  C2024 05 27.34261313 27 57.961-13 42 15.75         20.86GVEK102F52
     K24K00K  C2024 05 27.34343813 27 57.744-13 42 18.56         21.94GVEK102F52
     K24K00K  C2024 05 28.15399813 24 37.151-14 31 36.65         20.7 GVEK102H01
     K24K00K  C2024 05 28.15811113 24 35.966-14 31 52.13         21.7 GVEK102H01
     K24K00K  C2024 05 28.16863813 24 32.932-14 32 31.68         20.9 GVEK102H01
     K24K00K  C2024 05 28.17543113 24 30.974-14 32 57.14         20.6 GVEK102H01
     K24K00K KC2024 05 28.22809013 24 16.060-14 36 13.43         21.12GVEK102I52
     K24K00K KC2024 05 28.23582913 24 13.835-14 36 41.94         21.24GVEK102I52
     K24K00K KC2024 05 28.24355713 24 11.596-14 37 10.81         21.49GVEK102I52
     K24K00K KC2024 05 28.25128113 24 09.367-14 37 39.86         20.57GVEK102I52
Observer details:
F51 Pan-STARRS 1, Haleakala.  Observers J. Herman, T. Lowe, P. Minguez, A.
    Schultz, I. Smith.  Measurers K. Chambers, T. de Boer, J. Fairlamb, H.
    Gao, M. Huber, C.-C. Lin, E. Magnier, Y. Ramanjooloo, R. Wainscoat, R.
    Weryk.  1.8-m Ritchey-Chretien + CCD.
F52 Pan-STARRS 2, Haleakala.  Observers J. Herman, T. Lowe, P. Minguez, A.
    Schultz, I. Smith.  Measurers K. Chambers, T. de Boer, J. Fairlamb, H.
    Gao, M. Huber, C.-C. Lin, E. Magnier, Y. Ramanjooloo, R. Wainscoat, R.
    Weryk.  1.8-m Ritchey-Chretien + CCD.
H01 Magdalena Ridge Observatory, Socorro.  Observers W. H. Ryan, E. V. Ryan.
    Measurer W. H. Ryan.  2.4-m f/8.9 Ritchey-Chretien + CCD.
I52 Steward Observatory, Mt. Lemmon Station.  Observer R. A. Kowalski.
    Measurers T. Beuden, V. F. Carvajal, D. Fay, J. B. Fazekas, D. C. Fuls, A.
    R. Gibbs, A. D. Grauer, H. Groeller, J. K. Hogan, R. A. Kowalski, S. M.
    Larson, G. J. Leonard, D. Rankin, R. L. Seaman, F. C. Shelly, K. W.
    Wierzchos.  1.0-m prime focus + CCD.
Orbital elements:
2024 KK                                                  Earth MOID = 0.0400 AU
Epoch 2024 Mar. 31.0 TT = JDT 2460400.5                 MPC                     
M 318.99094              (2000.0)            P               Q                  
n   0.41289596     Peri.  231.07554     +0.34076353     +0.93555345             
a   1.7861131      Node    59.08693     -0.82561582     +0.34502537             
e   0.4493051      Incl.    6.21249     -0.44970961     +0.07548003             
P   2.39           H   24.67          G   0.15           U   8                  
Residuals in seconds of arc
240526 F51  0.1+  0.1+    240528 H01  0.0   0.1+    240528 I52  0.1+  0.1+
240526 F51  0.0   0.1-    240528 H01  0.0   0.1+    240528 I52  0.1-  0.1+
240526 F51  0.1-  0.1+    240528 H01  0.0   0.1+    240528 I52  0.1-  0.2-
240527 F52  0.1-  0.1-    240528 H01  0.0   0.2+
240527 F52  0.1+  0.0     240528 I52  0.0   0.3-
Ephemeris:
2024 KK                  a,e,i = 1.79, 0.45, 6                   q = 0.9836
Date    TT    R. A. (2000) Decl.     Delta      r    Elong.  Phase     V
2024 04 28    14 30 40.6 -02 52 33   0.2551  1.2578   168.5     9.1    22.8
...
2024 05 13    14 08 26.0 -05 19 54   0.1686  1.1686   158.2    18.7    22.1
...
2024 05 21    13 49 22.1 -08 49 21   0.1304  1.1251   148.4    28.2    21.7
...
2024 05 27    13 29 21.4 -13 21 38   0.1048  1.0951   139.6    36.9    21.5
2024 05 28    13 25 16.0 -14 20 55   0.1008  1.0903   138.0    38.5    21.4
2024 05 29    13 20 53.3 -15 25 05   0.09692 1.0857   136.3    40.2    21.4
...
2024 06 04    12 45 53.3 -23 57 09   0.07558 1.0593   124.6    52.0    21.1
...
2024 06 12    11 07 26.9 -41 55 09   0.05616 1.0293   102.7    74.2    21.1
...
2024 06 27    05 10 13.9 -42 53 06   0.07175 0.9923    68.4   107.8    23.0
A. U. Tomatic                (C) Copyright 2024 MPC           M.P.E.C. 2024-K102
    
    
More information about the Iaude
mailing list